Regional Weather Roundup
Issued by NWS

Home | Current Version | Previous Version | Graphics & Text | Print | Product List | Glossary On
Versions: 1 2 3 4 5 6 7 8 9 10 11 12 13 14 15 16 17 18 19 20 21 22 23 24 25 26 27 28 29 30 31 32 33 34 35 36 37 38 39 40 41 42 43 44 45 46 47 48 49 50
075
ASUS43 KLOT 260703
RWRIL

ILLINOIS REGIONAL WEATHER ROUNDUP
NATIONAL WEATHER SERVICE CHICAGO/ROMEOVILLE IL
200 AM CDT WED APR 26 2017

NOTE: "FAIR" INDICATES FEW OR NO CLOUDS BELOW 12,000 FEET WITH NO
SIGNIFICANT WEATHER AND/OR OBSTRUCTIONS TO VISIBILITY.

* THESE STATIONS ARE NOT UNDER NWS QUALITY CONTROL. THEY ALSO MAY NOT
  REPORT WEATHER SUCH AS PRECIPITATION OR FOG.

ILZ001-002-007-009-015-016-024-260800-
NORTHWEST ILLINOIS

CITY           SKY/WX    TMP DP  RH WIND       PRES   REMARKS
MOLINE         CLOUDY    71  49  45 S10       29.42F
STERLING*      CLOUDY    68  53  58 VRB7      29.46S
SAVANNA*       CLOUDY    67  51  57 S9        29.44S
$$

ILZ003-004-008-010-011-017-018-260800-
NORTH CENTRAL ILLINOIS

CITY           SKY/WX    TMP DP  RH WIND       PRES   REMARKS
ROCKFORD       CLOUDY    68  53  58 SE14      29.48F
FREEPORT*      MOCLDY    65  52  62 SE13G18   29.47F
ROCHELLE*      CLOUDY    65  55  68 S17       29.48S
DE KALB*       CLOUDY    65  55  67 S14       29.50F
PERU*          PTCLDY    65  52  63 S10       29.49S
$$

ILZ005-006-012>014-019>023-260800-
NORTHEAST ILLINOIS

CITY           SKY/WX    TMP DP  RH WIND       PRES   REMARKS
CHICAGO-OHARE  CLOUDY    68  54  60 S15       29.51F
CHICAGO-MIDWAY CLOUDY    69  55  60 S13G21    29.52F
AURORA         CLOUDY    67  55  65 SE13      29.50F
LANSING*       CLOUDY    65  57  74 SE9       29.55F
JOLIET*        PTCLDY    67  56  67 S8        29.52F
WAUKEGAN       CLOUDY    58  52  80 SE7       29.52F
DUPAGE AIRPORT CLOUDY    67  56  67 S14       29.50F
KANKAKEE*      CLOUDY    65  55  67 SE8G16    29.54F
WHEELING       CLOUDY    67  55  65 S13G20    29.52F
MORRIS*        CLOUDY    67  55  65 S14G20    29.50F
NORTHERLY ISL    N/A     59  52  77 S5          N/A
$$

LMZ740>746-260800-
SOUTHERN LAKE MICHIGAN

STATION/POSITION SKY/WX   TEMP    WIND        PRES    VSBY  WAVE
                          AIR SEA DIR/SP/G                  HT/PER
                          (F)     (DEG/KT/KT) (MB)    (MI)  (FT/S)
SOUTHERN BUOY              49 41   90/ 12/ 14 1001.7          1
HARRISON CRIB              60     150/ 15/ 16   N/A
BURNHAM HARBOR             59     160/  4/  8   N/A
CALUMET HARBOR             67     150/  8/ 11 1000.2F
BURNS HARBOR               68     160/  8/ 18 1001.7F
MICHIGAN CITY              67     150/  9/ 11   N/A
ST. JOSEPH                 60 50  170/ 10/ 12 1001.8F         1
$$

ILZ025>027-034>036-040-047-049-050-058-095>099-260800-
WEST-CENTRAL ILLINOIS

CITY           SKY/WX    TMP DP  RH WIND       PRES   REMARKS
QUINCY         CLOUDY    69  52  54 S10       29.45S
GALESBURG*     CLOUDY    68  51  55 S8        29.44F
MACOMB*        CLOUDY    68  51  53 S10       29.47F
JACKSONVILLE*  CLOUDY    67  51  56 S9        29.47F
PITTSFIELD*    CLOUDY    70  53  54 S10       29.48S
$$

ILZ028>032-037-038-041>044-048-051>054-059>061-260800-
CENTRAL ILLINOIS

CITY           SKY/WX    TMP DP  RH WIND       PRES   REMARKS
PONTIAC        CLOUDY    67  57  71 SE16      29.51F
BLOOMINGTON    CLOUDY    64  55  72 S15       29.52F
DECATUR        CLOUDY    66  57  72 S16       29.53F
PEORIA         MOCLDY    67  51  56 S9        29.48F
LACON*         CLOUDY    66  52  60 S9        29.47F
LINCOLN*       CLOUDY    67  55  64 S7        29.50F
SPRINGFIELD    CLOUDY    68  51  54 S13       29.49F
TAYLORVILLE    PTCLDY    65  54  66 S10       29.51F
$$

ILZ033-039-045-046-055>057-062-063-260800-
EAST-CENTRAL ILLINOIS

CITY           SKY/WX    TMP DP  RH WIND       PRES   REMARKS
CHAMPAIGN      PTCLDY    66  55  67 SE15      29.55F
RANTOUL*       MOCLDY    67  57  71 S10       29.55F
MATTOON        MOCLDY    65  58  78 S12       29.55F
PARIS*         PTCLDY    64  57  78 SE12      29.59F
$$

ILZ079-100>102-260800-
SOUTHWEST ILLINOIS

CITY           SKY/WX    TMP DP  RH WIND       PRES   REMARKS
ALTON          MOCLDY    66  51  59 S8        29.50F
BELLEVILLE     CLOUDY    67  54  62 E3        29.50F
CAHOKIA*       CLOUDY    67  51  56 SE6       29.49F
SPARTA*        CLOUDY    67  53  59 S10G16    29.55F
$$

ILZ064>066-069>071-074>076-080>082-084>086-088>090-092>094-260800-
SOUTH-CENTRAL ILLINOIS

CITY           SKY/WX    TMP DP  RH WIND       PRES   REMARKS
CARBONDALE     CLOUDY    67  55  65 S12       29.56F
CAIRO*         CLOUDY    65  56  71 S7        29.59F
EFFINGHAM*     CLOUDY    65  58  77 SE10      29.58F
MARION         CLOUDY    66  55  68 S10       29.59F
MT. VERNON     CLOUDY    65  56  72 S7        29.57F
CENTRALIA*     MOCLDY    67  57  69 S12       29.54F
SALEM*         MOCLDY    68  55  64 S7        29.55F
METROPOLIS*    PTCLDY    68  55  64 S8        29.61S
$$

ILZ067-068-072-073-078-083-087-091-260800-
SOUTHEAST ILLINOIS

CITY           SKY/WX    TMP DP  RH WIND       PRES   REMARKS
LAWRENCEVILLE  MOCLDY    64  57  78 SE10      29.61F
FLORA*         MOCLDY    64  58  79 S8        29.58F
FAIRFIELD*     PTCLDY    64  56  77 SE3       29.57F
HARRISBURG*    PTCLDY    63  56  80 CALM      29.61S
ROBINSON*      CLOUDY    63  57  79 SE9       29.61F
CARMI*         CLOUDY    60  57  92 SE5       29.60F
$$

ABBREVIATIONS USED IN REMARKS
   TC - TEMPERATURE IN CELSIUS
  WCI - WIND CHILL INDEX
   HX - HEAT INDEX
  VSB - VISIBILITY
$$





USA.gov is the U.S. government's official web portal to all federal, state and local government web resources and services.